Miscellaneous Local Product
Issued by NWS Hastings, NE

Home | Current Version | Previous Version | Text Only | Print | Product List | Glossary Off
Versions: 1 2 3 4 5 6 7 8 9 10 11 12 13 14 15 16 17 18 19 20 21 22 23 24 25 26 27 28 29 30 31 32 33 34 35 36 37 38 39 40 41 42 43 44 45 46 47 48 49 50

000
AXUS43 KGID 310302
MISGRI

GID CWA HOURLY WEATHER ROUNDUP
NATIONAL WEATHER SERVICE HASTINGS NE
1000 PM CDT MON MAY 30 2016

NOTE: "FAIR" INDICATES FEW OR NO CLOUDS BELOW 12,000 FEET WITH NO
SIGNIFICANT WEATHER AND/OR OBSTRUCTIONS TO VISIBILITY.

...SOUTH CENTRAL NEBRASKA...

CITY           SKY/WX    TMP DP  RH WIND       PRES   REMARKS
GRAND ISLAND   CLOUDY    72  60  66 S9        29.88R
HASTINGS       CLOUDY    73  58  59 S8        29.87R
KEARNEY        CLOUDY    72  52  49 W25G35    29.91R
ORD            CLOUDY    70  59  68 SW12      29.84R
YORK           CLOUDY    73  61  64 S9        29.88R
AURORA         CLOUDY    74  58  57 S10       29.87R
LEXINGTON      RAIN      61  56  82 W20G31    29.98R
HOLDREGE       CLOUDY    69  51  51 NW30G53   29.91R HAZE
HEBRON         CLOUDY    73  61  65 S7        29.88R

...NEBRASKA PANHANDLE...

CITY           SKY/WX    TMP DP  RH WIND       PRES   REMARKS
CHADRON        LGT RAIN  59  47  64 NE18      29.92F
ALLIANCE       CLOUDY    60  44  55 N35G46    29.94R
SCOTTSBLUFF    CLOUDY    59  49  69 N16G23    29.97R
SIDNEY         CLOUDY    55  50  83 W9        29.96R

...WESTERN AND NORTH CENTRAL NEBRASKA...

CITY           SKY/WX    TMP DP  RH WIND       PRES   REMARKS
VALENTINE      CLOUDY    61  54  77 NW9       29.93R
AINSWORTH      CLOUDY    60  56  85 W16       29.91R
ONEILL         CLOUDY    73  57  58 S6        29.81S
BROKEN BOW     RAIN      66  52  60 NW25G39   29.89R
IMPERIAL       CLOUDY    61  53  75 SW8       29.92R
NORTH PLATTE   LGT RAIN  60  55  83 E14       29.89F
MCCOOK         CLOUDY    59  55  87 NE7G18    29.91F

...EASTERN NEBRASKA...

CITY           SKY/WX    TMP DP  RH WIND       PRES   REMARKS
NORFOLK        PTCLDY    75  57  53 S12       29.85R
SO SIOUX CITY  MOCLDY    72  59  63 SE15G24   29.86R
TEKAMAH        CLEAR     68  59  73 S16       29.86S
COLUMBUS       CLOUDY    75  55  50 S9        29.88R
ALBION         CLOUDY    73  58  59 S8        29.86R
OMAHA EPPLEY   MOCLDY    67  61  81 SE12      29.88F
MILLARD        CLEAR     68  60  74 SE7       29.88F
LINCOLN        CLOUDY    73  63  70 SE10      29.89R
NEBRASKA CITY  RAIN      67  66  95 SE9       29.92R
BEATRICE       CLEAR     74  62  64 S12G18    29.88S
FALLS CITY     LGT RAIN  71  63  75 SE7       29.93R

...NORTHERN KANSAS...

CITY           SKY/WX    TMP DP  RH WIND       PRES   REMARKS
GOODLAND       CLOUDY    58  54  86 SE13      29.97F
HILL CITY      CLOUDY    70  56  61 NW22G32   29.95R
NORTON         HVY RAIN  59  54  82 W15G23    30.00R
PHILLIPSBURG   MOCLDY    72  55  56 NW20G37   29.93R
SMITH CENTER   CLEAR     66  61  82 SE10      29.88R
BELOIT         CLEAR     70  61  73 SE10      29.89R
HAYS           CLOUDY    70  55  60 SE8       29.89R
RUSSELL        CLOUDY    69  61  75 SE10      29.88R
CONCORDIA      CLEAR     71  59  65 S13       29.90R
SALINA         CLEAR     72  63  73 SE17      29.90R
TOPEKA         CLEAR     71  59  65 S9        29.94S



USA.gov is the U.S. government's official web portal to all federal, state and local government web resources and services.